Torna al catalogo

BEIDOU 3M13

AttivoNavigazioneMEO
NORAD 43622·PAYLOAD·🇨🇳 China

Lanciato Sep 19, 2018 da Xichang Satellite Launch Center

Loading…

Prossimi Passaggi (prossime 24 ore)

TLE

AggiornatoSource: CelesTrak SupGP

Epoca: Sep 12, 2026, 00:00 UTC

1 43622C 18072A   26255.00000000  .00000000  00000+0  00000+0 0  2558
2 43622  56.7048  59.7992 0004047 324.5690  45.0572  1.86231198    17

Traccia BEIDOU 3M13 in tempo reale con AllMySat

Download on the App Store